Terminal Aerodrome Forecast
Issued by NWS Columbia, SC

Home | Current Version | Previous Version | Text Only | Print | Product List | Glossary On
Versions: 1 2 3 4 5 6 7 8 9 10 11 12 13 14 15 16 17 18 19 20 21 22 23 24 25 26 27 28 29 30 31 32 33 34 35 36 37 38 39 40 41 42 43 44 45 46
000
FTAK31 PAJN 281738
TAFAGS
TAF
PAGS 281738Z 2818/2918 24007KT P6SM -SHRA SCT012 OVC022
     FM282000 21008KT P6SM -SHRA SCT025 OVC035
     FM290000 20007KT P6SM VCSH SCT025 BKN040 OVC060
     FM290600 13004KT P6SM -SHRA BKN015 OVC025
      AMD LTD TO CLD VIS AND WIND=

USA.gov is the U.S. government's official web portal to all federal, state and local government web resources and services.